Content
SEND FEEDBACK

Daily
Averages
Monthly
Summary
Canada

VANCOUVER, BRITISH COLUMBIA


Home > North America > Canada > British Columbia
Elevation: 7 feet     Latitude: 49 11N     Longitude: 123 10W

WEATHER
 
SELECT A DAY
Number of Records: 252,960;   Date Range: 5/15/97 - 10/20/14
 
SHARE

PRINT THIS DATA

[ ← Previous Day ]
WEATHER ALMANAC - JANUARY 3, 2013
[ Next Day → ]
[ °C ]   °F
Weather ElementAverageHighLow
Temperature36 °F41 °F (1:35 pm)28.4 °F (12:35 am)
Dewpoint30.3 °F35.6 °F (11:15 pm)26.6 °F (3:55 am)
Humidity80.7 %100 % (12:35 am)61 % (2:35 pm)
Barometer30.12 in30.20 in (2:55 am)30.08 in (6:15 pm)
Wind Speed2.1 mph6.9 mph (5:55 pm)
Weather ElementAverage
Visibility9.7 mi
Wind DirectionNNE (31.3 °)

Weather ElementTotal
Precipitation---
Heating Degree Days30.3 (Base 65)
Averaged from 67 records on January 3, 2013
WEATHER CONDITIONS BREAKOUT
WIND DIRECTION BREAKOUT
WEATHER BY HOUR - JANUARY 3, 2013
[ °C ]   °F
Local TimeTemperatureDewpointHumidityBarometerVisibilityWind DirectionWind SpeedGust SpeedPrecipitationEventsConditions
12:35 AM28.4 °F28.4 °F100 %30.19 in5.0 miCalmClear
12:55 AM30.2 °F30.2 °F100 %30.19 in9.0 miCalmClear
1:15 AM35.6 °F32.0 °F87 %30.19 in10.0 miNE (50°)3.5 mphClear
1:35 AM35.6 °F32.0 °F87 %30.19 in10.0 miCalmClear
1:55 AM33.8 °F30.2 °F87 %30.19 in10.0 miEast (100°)3.5 mphClear
2:15 AM33.8 °F30.2 °F87 %30.19 in10.0 miCalmClear
2:35 AM32.0 °F30.2 °F93 %30.19 in10.0 miCalmClear
2:55 AM32.0 °F30.2 °F93 %30.20 in10.0 miNE (50°)3.5 mphClear
3:15 AM35.6 °F28.4 °F75 %30.20 in10.0 miENE (60°)3.5 mphClear
3:35 AM35.6 °F28.4 °F75 %30.18 in10.0 miNE (50°)3.5 mphClear
3:55 AM35.6 °F26.6 °F70 %30.17 in10.0 miEast (90°)3.5 mphClear
4:15 AM35.6 °F28.4 °F75 %30.16 in10.0 miNE (50°)4.6 mphClear
4:55 AM33.8 °F28.4 °F81 %30.15 in10.0 miCalmClear
5:15 AM33.8 °F26.6 °F75 %30.15 in10.0 miNorthClear
5:35 AM33.8 °F28.4 °F81 %30.14 in10.0 miCalmClear
5:55 AM33.8 °F28.4 °F81 %30.13 in10.0 miCalmClear
6:15 AM32.0 °F28.4 °F87 %30.13 in10.0 miCalmClear
6:35 AM32.0 °F28.4 °F87 %30.12 in10.0 miCalmClear
6:55 AM28.4 °F28.4 °F100 %30.13 in10.0 miCalmClear
7:15 AM30.2 °F28.4 °F93 %30.12 in10.0 miCalmClear
7:35 AM28.4 °F28.4 °F100 %30.12 in10.0 miCalmClear
7:55 AM28.4 °F26.6 °F93 %30.11 in10.0 miCalmClear
8:15 AM28.4 °F28.4 °F100 %30.11 in9.0 miCalmClear
8:35 AM28.4 °F28.4 °F100 %30.11 in8.0 miCalmClear
8:55 AM28.4 °F28.4 °F100 %30.11 in8.0 miCalmClear
9:15 AM30.2 °F28.4 °F93 %30.12 in9.0 miCalmClear
9:35 AM32.0 °F30.2 °F93 %30.12 in9.0 miCalmClear
9:55 AM32.0 °F32.0 °F100 %30.12 in10.0 miCalmClear
10:15 AM33.8 °F32.0 °F93 %30.13 in10.0 miCalmClear
10:35 AM35.6 °F32.0 °F87 %30.13 in10.0 miCalmClear
10:55 AM37.4 °F30.2 °F75 %30.13 in10.0 miCalmClear
11:15 AM37.4 °F32.0 °F81 %30.13 in10.0 miCalmClear
11:35 AM39.2 °F28.4 °F65 %30.12 in10.0 miCalmClear
11:55 AM39.2 °F32.0 °F75 %30.12 in10.0 miCalmClear
12:15 PM39.2 °F32.0 °F75 %30.11 in10.0 miCalmClear
12:35 PM39.2 °F32.0 °F75 %30.10 in10.0 miNE (40°)5.8 mphClear
1:35 PM41.0 °F32.0 °F70 %30.09 in10.0 miNE (40°)3.5 mphClear
1:55 PM41.0 °F30.2 °F65 %30.09 in10.0 miNE (50°)4.6 mphClear
2:15 PM41.0 °F30.2 °F65 %30.09 in10.0 miENE (60°)4.6 mphClear
2:35 PM41.0 °F28.4 °F61 %30.09 in10.0 miEast (100°)3.5 mphClear
2:55 PM39.2 °F28.4 °F65 %30.09 in10.0 miCalmClear
3:15 PM39.2 °F28.4 °F65 %30.09 in10.0 miCalmClear
3:35 PM39.2 °F28.4 °F65 %30.09 in10.0 miCalmClear
4:15 PM39.2 °F28.4 °F65 %30.10 in10.0 miCalmClear
4:35 PM39.2 °F28.4 °F65 %30.11 in10.0 miCalmClear
4:55 PM39.2 °F28.4 °F65 %30.10 in10.0 miCalmPartly Cloudy
5:15 PM39.2 °F30.2 °F70 %30.09 in10.0 miCalmClear
5:35 PM39.2 °F30.2 °F70 %30.09 in10.0 miNE (50°)4.6 mphClear
5:55 PM39.2 °F30.2 °F70 %30.09 in10.0 miNE (50°)6.9 mphClear
6:15 PM39.2 °F30.2 °F70 %30.08 in10.0 miENE (70°)3.5 mphClear
6:35 PM39.2 °F32.0 °F75 %30.08 in10.0 miESE (120°)3.5 mphRainLight Rain
6:55 PM39.2 °F32.0 °F75 %30.09 in6.0 miEast (80°)3.5 mphRainLight Rain
7:15 PM37.4 °F32.0 °F81 %30.09 in9.0 miEast (80°)3.5 mphRainLight Rain
7:35 PM37.4 °F33.8 °F87 %30.10 in10.0 miNE (50°)4.6 mphRainLight Rain
7:55 PM39.2 °F32.0 °F75 %30.09 in10.0 miNE (50°)3.5 mphRainLight Rain
8:15 PM39.2 °F32.0 °F75 %30.10 in10.0 miENE (60°)4.6 mphRainLight Rain
8:35 PM37.4 °F32.0 °F81 %30.10 in10.0 miEast (80°)5.8 mphRainLight Rain
8:55 PM37.4 °F32.0 °F81 %30.10 in10.0 miENE (60°)5.8 mphRainLight Rain
9:15 PM37.4 °F33.8 °F87 %30.09 in10.0 miENE (60°)3.5 mphMostly Cloudy
9:35 PM39.2 °F33.8 °F81 %30.09 in10.0 miEast (80°)4.6 mphOvercast
9:55 PM39.2 °F32.0 °F75 %30.09 in10.0 miNorthOvercast
10:15 PM39.2 °F32.0 °F75 %30.10 in10.0 miESE (110°)4.6 mphOvercast
10:35 PM39.2 °F32.0 °F75 %30.11 in10.0 miESE (110°)5.8 mphOvercast
10:55 PM39.2 °F33.8 °F81 %30.10 in10.0 miNE (50°)5.8 mphOvercast
11:15 PM39.2 °F35.6 °F87 %30.11 in10.0 miENE (70°)4.6 mphOvercast
11:35 PM39.2 °F33.8 °F81 %30.11 in7.0 miENE (70°)6.9 mphRainLight Rain
11:55 PM37.4 °F33.8 °F87 %30.11 in10.0 miENE (60°)4.6 mphOvercast
Hourly data recorded from CZBB, located miles away from Vancouver, British Columbia







STORIES FROM OUR PARTNERS